Location: Unspecified
(0.0000°N, 0.0000°E)
Time: 06:31:58
(UTC+00:00)

Vanguard 2 - Pass Details

Date: 22 November 2019
Orbit: 553 x 2938 km, 32.9° (Epoch: 10 December)

Event Time Altitude Azimuth Distance (km) Brightness Sun altitude
Rises 04:38:28 0° 245° (WSW) 6,754 11.9 -15.8°
Reaches altitude 10° 04:43:05 10° 248° (WSW) 5,770 11.5 -14.7°
Maximum altitude 05:00:21 57° 322° (NW) 2,916 10.1 -10.7°
Drops below altitude 10° 05:13:05 10° 39° (NE) 4,357 11.6 -7.7°
Sets 05:16:05 0° 44° (NE) 5,068 12.0 -7.0°
